Location: Newark
(40.7066°N, 111.8219°W)
Time: 19:33:05
(UTC+00:00)

deb Explorer IX - All Passes

Search period start: 20 November 2019 00:00
Search period end: 30 November 2019 00:00
Orbit: 546 x 1105 km, 38.8° (Epoch: 20 November)

Date Brightness Start Highest point End Pass type
(mag) Time Alt. Az. Time Alt. Az. Time Alt. Az.
20 Nov - 06:46:43 10° SSW 06:52:24 27° SSE 06:57:35 10° E night (unlit)
20 Nov - 08:32:44 10° WSW 08:39:15 58° SSE 08:44:53 10° E night (unlit)
20 Nov - 10:20:12 10° W 10:26:21 74° S 10:31:32 10° E visible
20 Nov - 12:07:52 10° W 12:13:11 46° SSW 12:17:43 10° SE visible
20 Nov - 13:56:39 10° WSW 13:59:14 14° SW 14:01:40 10° S daylight
21 Nov - 06:24:28 10° SSW 06:30:20 28° SSE 06:35:42 10° E night (unlit)
21 Nov - 08:10:32 10° WSW 08:17:13 59° SSE 08:23:01 10° E night (unlit)
21 Nov - 09:58:02 10° W 10:04:22 75° S 10:09:42 10° E visible
21 Nov - 11:45:45 10° W 11:51:14 47° SSW 11:55:54 10° SE visible
21 Nov - 13:34:34 10° WSW 13:37:18 15° SW 13:39:51 10° S visible
22 Nov - 06:02:14 10° SSW 06:08:14 29° SSE 06:13:48 10° E night (unlit)
22 Nov - 07:48:21 10° WSW 07:55:10 61° SSE 08:01:08 10° E night (unlit)
22 Nov - 09:35:52 10° W 09:42:21 75° S 09:47:52 10° E night (unlit)
22 Nov - 11:23:36 10° W 11:29:16 47° SSW 11:34:05 10° SE visible
22 Nov - 13:12:28 10° WSW 13:15:21 15° SW 13:18:01 10° S visible
23 Nov - 05:40:01 10° SSW 05:46:09 30° SSE 05:51:52 10° E night (unlit)
23 Nov - 07:26:09 10° WSW 07:33:06 62° SSE 07:39:14 10° E night (unlit)
23 Nov - 09:13:41 10° W 09:20:20 75° S 09:26:01 10° E night (unlit)
23 Nov - 11:01:27 10° W 11:07:17 48° SSW 11:12:15 10° SE visible
23 Nov - 12:50:21 10° WSW 12:53:23 15° SW 12:56:12 10° S visible
24 Nov - 05:17:48 10° SSW 05:24:01 31° SSE 05:29:55 10° E night (unlit)
24 Nov - 07:03:58 10° WSW 07:11:00 63° SSE 07:17:19 10° E night (unlit)
24 Nov - 08:51:29 10° W 08:58:17 76° S 09:04:08 10° E night (unlit)
24 Nov - 10:39:16 10° W 10:45:17 48° SSW 10:50:24 10° SE visible
24 Nov - 12:28:12 10° WSW 12:31:24 16° SW 12:34:22 10° S visible
25 Nov - 04:55:36 10° SSW 05:01:54 32° SSE 05:07:56 10° E night (unlit)
25 Nov - 06:41:46 10° WSW 06:48:55 64° SSE 06:55:22 10° E night (unlit)
25 Nov - 08:29:18 10° W 08:36:14 76° S 08:42:15 10° E night (unlit)
25 Nov - 10:17:06 10° W 10:23:16 48° SSW 10:28:32 10° SE visible
25 Nov - 12:06:02 10° WSW 12:09:25 16° SW 12:12:31 10° S visible
26 Nov - 04:33:25 10° SSW 04:39:46 33° SSE 04:45:55 10° E night (unlit)
26 Nov - 06:19:35 10° WSW 06:26:48 65° SSE 06:33:24 10° E night (unlit)
26 Nov - 08:07:06 10° W 08:14:10 76° S 08:20:21 10° E night (unlit)
26 Nov - 09:54:55 10° W 10:01:14 48° SSW 10:06:40 10° SE night (unlit)
26 Nov - 11:43:51 10° WSW 11:47:24 16° SW 11:50:40 10° S visible
27 Nov - 04:11:14 10° SSW 04:17:37 33° SSE 04:23:53 10° E visible
27 Nov - 05:57:25 10° WSW 06:04:40 65° SSE 06:11:25 10° E night (unlit)
27 Nov - 07:44:55 10° W 07:52:04 76° S 07:58:24 10° E night (unlit)
27 Nov - 09:32:42 10° W 09:39:10 49° SSW 09:44:46 10° SE night (unlit)
27 Nov - 11:21:40 10° WSW 11:25:23 17° SW 11:28:48 10° S visible
28 Nov - 03:49:05 10° SSW 03:55:29 34° SSE 04:01:49 10° E visible
28 Nov - 05:35:15 10° WSW 05:42:32 66° SSE 05:49:23 10° E night (unlit)
28 Nov - 07:22:43 10° W 07:29:58 76° S 07:36:27 10° E night (unlit)
28 Nov - 09:10:31 10° W 09:17:06 49° SSW 09:22:51 10° SE night (unlit)
28 Nov - 10:59:28 10° WSW 11:03:20 17° SW 11:06:55 10° S visible
29 Nov - 01:46:35 10° SE 01:47:05 10° SE 01:47:36 10° SE visible
29 Nov - 03:26:57 10° SSW 03:33:19 34° SSE 03:39:45 10° E visible
29 Nov - 05:13:06 10° WSW 05:20:22 67° SSE 05:27:22 10° E night (unlit)
29 Nov - 07:00:33 10° W 07:07:50 76° S 07:14:29 10° E night (unlit)
29 Nov - 08:48:19 10° W 08:55:01 49° SSW 09:00:56 10° SE night (unlit)
29 Nov - 10:37:15 10° W 10:41:17 17° SW 10:45:00 10° S night (unlit)
